Vertical_Velocity
19 5 -2 4 5 -0 4 -7 -1 3 0 -5 -0 -2 -3 -2 -1 -1 -0 -2 -2 -0 -1 1 0 -1 -1 1 1 0 1 -0 0 0 -1 -2 -1 -1 1 -1 -0 1 -0 6
6 7 6 0 -6 8 18 8 5 2 -1 -6 -2 -0 -0 -2 -1 -2 -1 0 1 1 0 -1 -1 -1 -1 -1 -1 -1 2 0 -1 -2 -1 -0 0 0 -0 -1 -2 -0 -4 1
2 12 2 4 7 11 1 2 -10 -5 -4 -1 -0 -1 0 -2 -1 -0 2 1 -1 1 -0 -1 -2 -2 -1 0 0 -0 -1 1 0 1 -2 -3 -1 -1 -2 -2 -1 -1 4 -1
1 -3 6 10 10 2 -2 0 -1 15 -10 -8 -1 -2 2 -0 -1 1 -1 0 2 -1 -1 0 -0 -1 -1 0 1 -0 -2 -1 -1 -1 0 -0 1 -1 -2 0 -1 -1 2 3
-4 -10 3 23 5 -6 -0 1 -9 -2 15 -1 2 -2 -4 1 -0 -1 1 1 -1 0 -0 1 -0 -1 -0 1 0 -1 0 -0 -1 -1 -1 -0 0 -1 -1 3 2 2 -3 9
3 -2 3 2 -12 5 14 11 11 6 8 2 -4 2 2 3 -1 -0 0 1 0 -0 0 1 1 0 -1 0 1 -0 -1 1 -0 0 -1 -3 -5 5 1 2 2 1 0 -1
8 -8 -8 -6 8 13 22 9 11 6 -1 -0 11 -1 0 3 0 0 2 -0 0 1 1 2 3 0 0 1 1 -0 -0 -1 -2 1 -1 -9 6 3 2 -1 1 -1 -1 -2
8 -1 -3 4 10 3 3 4 1 2 3 7 -4 -5 2 -0 -1 -3 1 0 -1 1 0 2 2 1 0 1 0 1 1 0 -1 -5 -1 1 3 3 0 1 12 -1 1 -2
1 -0 2 4 3 2 4 5 6 3 3 2 4 0 6 -1 -0 -2 -1 -2 0 -0 1 2 3 2 1 1 1 0 -0 -1 -1 2 -4 -5 3 2 -1 -3 -1 9 2 3
3 5 4 2 2 3 1 4 2 3 3 -2 -2 -0 9 4 -1 1 0 1 -1 -1 1 1 1 0 -1 1 0 -0 -1 -1 -0 -2 -4 -0 -1 -2 -1 -1 -5 -1 0 1
3 3 3 2 1 -0 -3 4 -1 0 0 1 1 -2 2 0 -4 1 5 -1 1 -0 -1 -1 1 0 -1 0 -0 -0 -2 -3 0 -3 -1 -3 1 -3 3 0 0 -1 -1 -2
1 0 -1 -2 -1 -0 2 0 1 1 -5 4 2 4 2 -2 -7 4 -1 1 -3 -3 -2 2 -3 -0 1 -0 2 -4 -0 -3 1 1 0 -4 -4 -2 -1 0 3 -2 2 -3
-2 -3 0 0 -1 -2 1 -1 5 -1 5 -0 -0 -2 -0 -0 0 2 -4 -3 1 -1 2 -1 -1 -1 -2 0 1 1 -1 1 1 -3 2 -4 -3 2 -1 -1 -1 -0 -1 2
-2 -3 -3 -2 -2 2 0 4 4 3 -0 -1 3 -0 -2 3 2 -1 1 0 -2 -0 -2 -2 0 0 2 3 -2 1 0 2 -2 0 2 -2 4 -3 -3 -2 -2 -1 1 -0
-1 -1 -3 -4 -3 0 2 -1 -1 0 -1 2 2 6 -0 2 3 -0 -2 0 -1 -2 -2 1 -1 1 -1 1 -0 7 -4 -5 -2 2 -1 -1 3 -2 -1 2 -1 -1 -0 -1
2 2 2 4 3 5 4 0 3 -3 -1 -3 -11 6 1 1 3 0 0 -1 -1 -0 0 0 2 2 -3 -2 2 4 -1 -2 -5 -0 2 -1 -2 -3 -1 -2 -2 -3 -3 -1
5 -1 -0 -0 3 2 -3 58 8 4 2 3 3 3 -0 4 3 2 0 -0 -0 0 -1 1 0 -0 -4 1 2 4 -1 -2 -5 -2 1 -0 2 -3 -2 -2 -2 -2 -2 -0
4 6 1 5 8 0 -2 -3 -0 -1 3 2 -1 -0 1 2 3 -1 -1 -1 -2 -1 -1 2 1 -2 -1 2 5 1 4 1 -2 -4 -2 -0 -0 -1 -2 2 -2 0 -0 -1
2 3 3 13 9 16 18 12 2 -0 -0 -1 3 6 4 -1 2 -1 -1 -0 -3 0 1 -1 -5 7 4 2 -0 0 1 1 -3 0 -1 -1 -1 -0 -2 1 -1 -1 -4 -3
-6 -3 1 2 -1 3 4 5 0 1 -0 0 -1 2 1 3 2 3 -0 -3 -1 -3 -0 -4 -0 3 6 1 1 -2 -4 -1 -2 -3 -2 -2 -3 -3 -3 -3 -3 -2 -1 -1
-2 10 10 -1 -0 -2 -4 -5 -2 -1 -2 1 2 1 1 0 0 -0 -4 -0 -1 -5 -0 -5 -2 0 8 6 -1 -1 -2 1 -0 1 -1 -2 -0 0 0 -1 -1 -2 -3 -2
-0 6 1 -1 -1 -0 -2 -1 0 1 -1 3 3 -1 -3 -0 1 -3 -2 -0 -4 -8 7 -6 -6 16 3 3 -0 0 2 2 1 -2 -1 0 -1 -0 0 1 1 1 1 -0
2 -4 -3 -2 -3 -4 -2 2 4 2 7 9 1 -3 -4 -3 -2 -4 1 -3 -4 2 -4 -5 8 3 -1 -1 1 0 -1 0 1 2 4 3 2 -0 -2 -3 -2 -3 -2 -2
-0 11 6 3 0 -0 3 3 3 3 0 -1 1 -2 -1 3 -0 -1 2 -5 1 -8 -2 6 3 1 -2 -1 1 0 1 2 1 0 -0 -0 -2 -2 -1 -2 -1 -2 -2 -0
0 -1 -4 -2 2 1 2 4 1 1 -1 -3 -1 0 2 2 -4 2 0 -4 -7 -2 1 -1 -1 -1 -1 -2 -1 0 -1 -0 -1 -2 -1 -1 -2 -2 -1 -1 -1 -1 -2 -1
11 6 8 10 6 3 -1 -2 -2 2 0 1 2 1 -2 -1 -3 -2 -1 -4 -3 0 -2 1 0 1 0 -0 -0 -1 -1 -2 -1 -1 -2 -2 -3 -3 -2 -2 -1 -1 -2 -1
0 -3 -0 -3 -0 -0 -0 1 1 1 1 2 1 2 3 2 1 3 5 1 2 4 4 3 1 -0 -2 -2 -1 0 -0 -1 -2 -2 -3 -3 -1 -1 -2 -1 -3 -1 0 1
Height
5566 5585 5605 5620 5635 5646 5658 5669 5677 5685 5692 5698 5706 5711 5718 5724 5728 5732 5736 5739 5741 5744 5747 5748 5750 5752 5754 5756 5757 5759 5760 5761 5763 5765 5766 5767 5769 5770 5771 5772 5774 5773 5773 5775
5551 5566 5586 5606 5622 5639 5650 5659 5669 5678 5685 5692 5701 5706 5714 5720 5726 5730 5734 5737 5740 5742 5743 5745 5746 5748 5750 5751 5753 5755 5756 5757 5760 5761 5764 5765 5766 5767 5769 5770 5771 5771 5771 5771
5536 5554 5571 5593 5612 5629 5639 5652 5661 5671 5678 5689 5698 5703 5710 5717 5723 5727 5731 5735 5737 5738 5739 5740 5742 5744 5745 5747 5749 5750 5752 5754 5756 5759 5760 5761 5763 5764 5765 5766 5767 5767 5768 5765
5522 5541 5561 5582 5601 5618 5630 5641 5653 5664 5669 5681 5691 5699 5707 5713 5719 5725 5729 5733 5734 5735 5736 5737 5738 5740 5742 5744 5745 5747 5749 5751 5753 5755 5756 5758 5760 5761 5762 5762 5763 5762 5763 5762
5511 5533 5553 5572 5589 5607 5622 5633 5644 5656 5670 5679 5687 5692 5701 5709 5716 5722 5727 5730 5731 5732 5733 5734 5735 5736 5738 5740 5742 5743 5746 5749 5750 5751 5753 5755 5756 5757 5759 5758 5758 5757 5755 5756
5503 5526 5550 5567 5583 5604 5616 5627 5638 5653 5664 5672 5681 5689 5698 5706 5713 5719 5723 5726 5728 5730 5731 5731 5732 5733 5734 5736 5737 5740 5742 5745 5747 5749 5750 5750 5751 5755 5754 5753 5752 5750 5748 5746
5502 5525 5548 5566 5585 5598 5613 5622 5635 5646 5658 5668 5677 5686 5694 5702 5709 5715 5720 5723 5726 5728 5729 5729 5730 5731 5731 5733 5734 5737 5740 5742 5743 5745 5745 5744 5748 5749 5747 5746 5745 5742 5740 5737
5508 5529 5550 5567 5581 5593 5607 5620 5631 5641 5652 5662 5673 5681 5689 5696 5704 5709 5715 5719 5722 5725 5726 5727 5728 5729 5730 5731 5732 5734 5736 5737 5738 5738 5739 5740 5740 5740 5740 5738 5738 5733 5730 5727
5514 5535 5552 5568 5580 5593 5605 5617 5627 5638 5649 5660 5669 5676 5685 5693 5700 5707 5711 5715 5719 5721 5723 5725 5726 5727 5728 5729 5730 5730 5731 5732 5733 5733 5732 5732 5733 5732 5731 5729 5726 5723 5721 5717
5522 5540 5555 5569 5581 5593 5604 5614 5624 5634 5645 5656 5664 5672 5680 5689 5696 5703 5708 5711 5714 5717 5720 5721 5723 5724 5725 5726 5726 5727 5727 5727 5727 5726 5725 5725 5724 5723 5721 5719 5718 5711 5707 5704
5530 5546 5559 5572 5582 5593 5602 5613 5620 5630 5642 5651 5659 5668 5677 5685 5692 5698 5704 5707 5710 5713 5715 5717 5718 5719 5721 5721 5722 5722 5722 5721 5721 5720 5717 5715 5715 5712 5710 5706 5702 5699 5694 5690
5538 5550 5562 5573 5583 5592 5602 5611 5619 5628 5640 5648 5657 5665 5673 5680 5687 5694 5697 5701 5704 5707 5709 5712 5713 5714 5715 5715 5716 5715 5715 5714 5713 5712 5710 5706 5702 5700 5697 5694 5691 5687 5683 5678
5544 5555 5564 5573 5583 5594 5601 5608 5618 5627 5637 5646 5654 5661 5669 5676 5682 5687 5691 5695 5699 5701 5704 5705 5706 5707 5708 5708 5708 5707 5707 5705 5704 5702 5700 5695 5691 5689 5686 5683 5679 5676 5672 5668
5548 5557 5566 5576 5585 5592 5601 5609 5618 5627 5636 5643 5651 5658 5664 5670 5676 5681 5686 5690 5692 5694 5696 5697 5698 5699 5699 5699 5698 5698 5699 5694 5691 5690 5687 5684 5682 5679 5675 5671 5668 5664 5660 5656
5550 5560 5569 5577 5585 5593 5601 5609 5618 5626 5635 5641 5648 5655 5660 5666 5671 5675 5679 5683 5685 5686 5689 5689 5690 5690 5689 5688 5688 5687 5686 5682 5680 5679 5676 5673 5671 5668 5665 5662 5658 5654 5649 5645
5555 5562 5571 5578 5586 5594 5601 5609 5618 5624 5630 5637 5643 5650 5656 5660 5665 5668 5672 5675 5677 5679 5680 5681 5681 5681 5680 5678 5677 5677 5675 5673 5669 5667 5665 5662 5659 5655 5652 5649 5646 5641 5637 5633
5557 5563 5571 5578 5585 5593 5602 5610 5617 5623 5628 5634 5640 5645 5650 5654 5658 5662 5665 5667 5669 5671 5671 5672 5672 5671 5670 5668 5666 5666 5665 5663 5660 5658 5655 5651 5647 5643 5639 5636 5632 5628 5624 5620
5559 5565 5571 5578 5586 5594 5600 5607 5613 5619 5624 5630 5635 5639 5645 5648 5651 5654 5656 5658 5660 5661 5661 5662 5661 5660 5659 5657 5657 5657 5655 5652 5649 5646 5643 5639 5635 5631 5627 5624 5619 5615 5611 5606
5560 5565 5573 5580 5587 5592 5598 5604 5610 5614 5621 5624 5630 5635 5638 5641 5644 5646 5649 5650 5650 5651 5651 5651 5651 5650 5650 5649 5648 5645 5643 5640 5638 5635 5631 5628 5624 5620 5615 5611 5607 5602 5597 5592
5562 5569 5575 5580 5584 5590 5595 5600 5605 5609 5614 5619 5623 5627 5631 5634 5637 5638 5641 5640 5640 5640 5642 5641 5641 5641 5641 5639 5636 5633 5631 5628 5624 5620 5618 5615 5612 5608 5604 5599 5594 5589 5584 5579
5566 5571 5576 5581 5584 5588 5592 5596 5601 5605 5609 5613 5617 5621 5624 5627 5629 5630 5630 5630 5631 5631 5632 5632 5631 5631 5630 5628 5624 5621 5618 5615 5612 5610 5607 5603 5600 5596 5592 5587 5582 5576 5570 5564
5566 5572 5575 5579 5583 5588 5591 5594 5597 5601 5606 5610 5614 5617 5619 5620 5621 5621 5621 5622 5621 5620 5622 5620 5618 5621 5618 5615 5612 5609 5607 5605 5602 5599 5595 5591 5587 5583 5578 5572 5567 5561 5555 5549
5565 5570 5574 5578 5581 5584 5587 5592 5597 5600 5603 5605 5606 5609 5610 5611 5612 5611 5611 5610 5610 5610 5607 5606 5608 5607 5604 5601 5599 5597 5595 5592 5589 5585 5581 5577 5572 5567 5561 5555 5549 5543 5537 5531
5563 5567 5570 5574 5577 5579 5585 5590 5592 5594 5595 5596 5598 5599 5600 5600 5601 5600 5600 5599 5598 5596 5596 5597 5596 5593 5591 5589 5587 5584 5580 5577 5573 5569 5564 5559 5554 5548 5543 5538 5532 5527 5521 5515
5559 5563 5565 5568 5572 5575 5579 5581 5583 5585 5586 5587 5588 5588 5590 5590 5589 5590 5589 5588 5586 5586 5587 5585 5583 5580 5578 5575 5572 5569 5565 5561 5557 5552 5548 5543 5538 5534 5528 5523 5517 5511 5505 5499
5553 5556 5559 5562 5565 5567 5570 5572 5573 5575 5576 5577 5577 5578 5578 5579 5579 5578 5577 5578 5576 5576 5575 5572 5569 5567 5564 5561 5558 5554 5550 5547 5542 5538 5534 5530 5525 5519 5514 5508 5503 5497 5491 5486
5546 5548 5551 5554 5556 5558 5560 5561 5563 5564 5566 5566 5567 5568 5569 5568 5567 5568 5568 5566 5566 5564 5562 5560 5557 5553 5550 5547 5544 5540 5537 5533 5529 5525 5521 5516 5511 5505 5499 5493 5487 5481 5476 5470